Regional Weather Roundup
Issued by NWS

Home | Current Version | Previous Version | Graphics & Text | Print | Product List | Glossary On
Versions: 1 2 3 4 5 6 7 8 9 10 11 12 13 14 15 16 17 18 19 20 21 22 23 24 25 26 27 28 29 30 31 32 33 34 35 36 37 38 39 40 41 42 43 44 45 46 47 48 49 50
000
ASUS43 KFSD 171210
RWRSD

WEATHER ROUNDUP FOR SOUTH DAKOTA
NATIONAL WEATHER SERVICE SIOUX FALLS SD
700 AM CDT WED SEP 17 2014

NOTE: "FAIR" INDICATES FEW OR NO CLOUDS BELOW 12,000 FEET WITH NO
SIGNIFICANT WEATHER AND/OR OBSTRUCTIONS TO VISIBILITY.


SDZ001>005-009-010-012>017-171300-
NORTHWEST AND NORTH CENTRAL SOUTH DAKOTA

CITY           SKY/WX    TMP DP  RH WIND       PRES   REMARKS
BUFFALO          N/A     50  43  77 VRB5      29.89R
FAITH            N/A     48  46  93 N7        29.93R
MOBRIDGE       CLEAR     45  45 100 N3        29.90S
$$

SDZ012>016-024>037-041>051-057-063-072>074-171300-
SOUTHWEST AND SOUTH CENTRAL SOUTH DAKOTA

CITY           SKY/WX    TMP DP  RH WIND       PRES   REMARKS
RAPID CTY ARPT CLEAR     53  39  59 NW8       29.95R
PIERRE         CLEAR     48  48 100 CALM      29.90R
CUSTER         CLEAR     48  30  49 NW7       30.08R
ELLSWORTH AFB  CLEAR     56  40  53 NW5       29.95S
PHILIP         CLEAR     44  42  93 W6        29.91R
PINE RIDGE     PTCLDY    52  49  89 CALM      29.95S
WINNER         FAIR      53  50  89 SW6       29.91R
$$

SDZ004>011-016>023-039-040-171300-
NORTHEAST SOUTH DAKOTA

CITY           SKY/WX    TMP DP  RH WIND       PRES   REMARKS
ABERDEEN       FOG       40  40 100 CALM      29.92S VSB 1/4
WATERTOWN      CLEAR     47  45  93 CALM      29.92R FOG
SISSETON         N/A     49  48  97 NE3       29.90R
$$

SDZ017-020-022-023-036>040-048>070-171300-
SOUTHEAST SOUTH DAKOTA

CITY           SKY/WX    TMP DP  RH WIND       PRES   REMARKS
SIOUX FALLS    PTCLDY    49  48  97 CALM      29.92R
HURON          CLEAR     47  45  93 CALM      29.91R
CHAMBERLAIN    FOG       44  44 100 SW5       29.90R VSB 1/4
MITCHELL       CLEAR     46  46 100 E5        29.91R
YANKTON        CLEAR     48  46  93 CALM      29.91F
$$

ABBREVIATIONS USED IN REMARKS
   TC - TEMPERATURE IN CELSIUS
  WCI - WIND CHILL INDEX
   HX - HEAT INDEX
  VSB - VISIBILITY



USA.gov is the U.S. government's official web portal to all federal, state and local government web resources and services.